Regional Weather Roundup
Issued by NWS

Home | Current Version | Previous Version | Text Only | Print | Product List | Glossary On
Versions: 1 2 3 4 5 6 7 8 9 10 11 12 13 14 15 16 17 18 19 20 21 22 23 24 25 26 27 28 29 30 31 32 33 34 35 36 37 38 39 40 41 42 43 44 45 46 47 48 49 50
000
ASUS43 KOAX 271402
RWRNE

WEATHER ROUNDUP FOR NEBRASKA
NATIONAL WEATHER SERVICE OMAHA NE
800 AM CST TUE JAN 27 2015

NOTES: SATELLITE DATA IS BEING USED TO AUGMENT CLOUD COVER ABOVE
       12000 FEET.
       "FAIR" INDICATES FEW OR NO CLOUDS BELOW 12,000 FEET WITH NO
       SIGNIFICANT WEATHER AND/OR OBSTRUCTIONS TO VISIBILITY.

  * THESE STATIONS DO NOT REPORT WEATHER SUCH AS RAIN...SNOW OR FOG.

NEZ001>004-019>022-054>056-271500-
NEBRASKA PANHANDLE

CITY           SKY/WX    TMP DP  RH WIND       PRES   REMARKS
SCOTTSBLUFF      N/A    N/A N/A N/A MISG      30.08R
ALLIANCE       PTCLDY    32  28  85 W9        30.04R WCI  24
CHADRON        PTCLDY    34  27  75 W9        30.03R WCI  27
SIDNEY         PTCLDY    31  24  75 W5        30.10R WCI  26
$$

NEZ057>060-069>072-079>082-271500-
SOUTHWEST NEBRASKA

CITY           SKY/WX    TMP DP  RH WIND       PRES   REMARKS
NORTH PLATTE   CLEAR     23  21  92 NW5       30.04S WCI  17
IMPERIAL       CLEAR     36  27  69 W7        30.07S WCI  30
MCCOOK         CLEAR     35  29  78 W13       30.07R WCI  26
$$

NEZ005>010-023>029-035>040-094-271500-
NORTH CENTRAL NEBRASKA

CITY           SKY/WX    TMP DP  RH WIND       PRES   REMARKS
VALENTINE      CLEAR     31  28  89 SW6       29.98R WCI  25
BROKEN BOW     CLEAR     28  25  88 CALM      30.00S
ORD            CLEAR     24  22  91 S3        30.02R
$$

NEZ041-046>049-061>064-073>077-083>087-271500-
SOUTH CENTRAL NEBRASKA

CITY           SKY/WX    TMP DP  RH WIND       PRES   REMARKS
GRAND ISLAND   CLEAR     34  28  79 S9        30.06R WCI  27
HASTINGS       PTCLDY    37  30  75 S7        30.06R WCI  32
KEARNEY *      PTCLDY    28  25  86 SW3       30.05R
$$

NEZ011>018-030>034-042>045-271500-
NORTHEAST NEBRASKA

CITY           SKY/WX    TMP DP  RH WIND       PRES   REMARKS
NORFOLK        CLEAR     25  23  92 E3        30.07R
COLUMBUS *     CLEAR     23  18  80 E3        30.10R
TEKAMAH        CLEAR     26  24  92 CALM      30.12R
$$

NEZ050>053-065>068-078-088>093-271500-
SOUTHEAST NEBRASKA

CITY           SKY/WX    TMP DP  RH WIND       PRES   REMARKS
LINCOLN        PTCLDY    22  20  92 CALM      30.13R
OMAHA EPPLEY   CLEAR     28  25  88 SE3       30.13R
FALLS CITY     PTCLDY    27  25  92 S3        30.13R
$$

NEZ044-045-051>053-067-271500-
OMAHA AREA

CITY           SKY/WX    TMP DP  RH WIND       PRES   REMARKS
OMAHA EPPLEY   CLEAR     28  25  88 SE3       30.13R
OFFUTT AFB     CLEAR     23  21  95 S1        30.12R
$$


USA.gov is the U.S. government's official web portal to all federal, state and local government web resources and services.